K4AVM-13 Weather Reports


Display with metric or nautical units.
time (UTC)temp
F
wind
direction
speed
MPH
gust
MPH
rain 1hr
in
rain 24hr
in
rain mn
in
humidity
%
barometer
mb
20260508213007 74 204 1.0 2.0 0.00 0.00 0.00 29 1014.8
20260508212504 74 162 1.0 2.0 0.00 0.00 0.00 30 1014.7
20260508212000 73 129 2.0 3.0 0.00 0.00 0.00 31 1014.5
20260508211455 74 163 0.0 2.0 0.00 0.00 0.00 31 1014.5
20260508210953 74 153 1.0 6.0 0.00 0.00 0.00 31 1014.5
20260508210449 74 176 1.0 2.0 0.00 0.00 0.00 30 1014.7
20260508205945 73 157 1.0 3.0 0.00 0.00 0.00 32 1014.6
20260508205443 73 188 1.0 2.0 0.00 0.00 0.00 31 1014.6
20260508204939 73 177 0.0 2.0 0.00 0.00 0.00 31 1014.8
20260508204437 73 137 1.0 3.0 0.00 0.00 0.00 31 1014.9
20260508203931 74 182 2.0 4.0 0.00 0.00 0.00 31 1014.9
20260508203428 75 127 0.0 1.0 0.00 0.00 0.00 30 1014.8
20260508202924 74 187 1.0 6.0 0.00 0.00 0.00 31 1015.0
20260508202422 75 123 1.0 3.0 0.00 0.00 0.00 31 1015.0
20260508201918 72 165 1.0 2.0 0.00 0.00 0.00 32 1015.1
20260508201415 72 150 3.0 4.0 0.00 0.00 0.00 31 1015.1
20260508200912 72 171 1.0 1.0 0.00 0.00 0.00 32 1015.0
20260508200409 73 190 2.0 9.0 0.00 0.00 0.00 31 1015.1
20260508195904 73 143 1.0 2.0 0.00 0.00 0.00 31 1015.2
20260508195401 73 173 2.0 3.0 0.00 0.00 0.00 30 1015.2
20260508194857 72 170 1.0 2.0 0.00 0.00 0.00 31 1015.3
20260508194354 72 170 2.0 3.0 0.00 0.00 0.00 30 1015.5
20260508193852 71 255 2.0 4.0 0.00 0.00 0.00 33 1015.4
20260508193348 72 175 2.0 2.0 0.00 0.00 0.00 32 1015.5
20260508192844 73 163 2.0 2.0 0.00 0.00 0.00 31 1015.4
20260508192342 72 152 1.0 4.0 0.00 0.00 0.00 30 1015.7
20260508191839 71 153 0.0 2.0 0.00 0.00 0.00 35 1015.8
20260508191336 72 79 4.0 6.0 0.00 0.00 0.00 34 1015.9
20260508190833 70 91 1.0 2.0 0.00 0.00 0.00 34 1015.9
20260508190329 71 192 2.0 2.0 0.00 0.00 0.00 33 1016.1
20260508185826 71 198 1.0 2.0 0.00 0.00 0.00 33 1016.1
20260508185323 71 191 0.0 2.0 0.00 0.00 0.00 31 1016.1
20260508184820 70 207 2.0 3.0 0.00 0.00 0.00 30 1016.3
20260508184318 71 141 2.0 3.0 0.00 0.00 0.00 30 1016.4
20260508183815 72 150 1.0 3.0 0.00 0.00 0.00 31 1016.3
20260508183311 71 156 2.0 4.0 0.00 0.00 0.00 33 1016.3
20260508182806 71 133 1.0 2.0 0.00 0.00 0.00 31 1016.4
20260508182306 70 206 2.0 2.0 0.00 0.00 0.00 33 1016.3
20260508181754 69 175 0.0 2.0 0.00 0.00 0.00 32 1016.6
20260508181250 70 170 2.0 3.0 0.00 0.00 0.00 32 1016.8
20260508180748 71 178 2.0 3.0 0.00 0.00 0.00 30 1016.7
20260508180244 71 153 3.0 4.0 0.00 0.00 0.00 32 1016.5
20260508175741 71 163 1.0 2.0 0.00 0.00 0.00 31 1016.9
20260508175237 70 186 0.0 2.0 0.00 0.00 0.00 39 1016.8
20260508174735 71 183 1.0 4.0 0.00 0.00 0.00 31 1016.9
20260508174233 70 137 1.0 3.0 0.00 0.00 0.00 32 1016.9
20260508173729 70 197 1.0 4.0 0.00 0.00 0.00 30 1016.8
20260508173225 69 195 1.0 2.0 0.00 0.00 0.00 30 1017.1
20260508172722 70 181 2.0 3.0 0.00 0.00 0.00 31 1017.2
20260508172219 70 113 2.0 4.0 0.00 0.00 0.00 32 1017.1
20260508171715 70 150 2.0 3.0 0.00 0.00 0.00 30 1017.4
20260508171211 69 156 1.0 2.0 0.00 0.00 0.00 33 1017.3
20260508170709 68 158 3.0 4.0 0.00 0.00 0.00 30 1017.5
20260508170206 68 134 1.0 8.0 0.00 0.00 0.00 34 1017.5
20260508165703 69 112 2.0 3.0 0.00 0.00 0.00 34 1017.9
20260508165200 69 199 3.0 6.0 0.00 0.00 0.00 30 1017.7
20260508164656 68 149 3.0 3.0 0.00 0.00 0.00 33 1017.6
20260508164153 68 104 0.0 1.0 0.00 0.00 0.00 35 1017.9
20260508163651 69 139 1.0 2.0 0.00 0.00 0.00 30 1017.9
20260508163148 68 233 1.0 3.0 0.00 0.00 0.00 35 1017.9
20260508162643 68 167 0.0 1.0 0.00 0.00 0.00 33 1018.1
20260508162141 68 174 0.0 2.0 0.00 0.00 0.00 34 1018.1
20260508161638 68 161 0.0 2.0 0.00 0.00 0.00 36 1018.2
20260508161135 68 156 1.0 2.0 0.00 0.00 0.00 34 1018.5
20260508160634 67 152 0.0 2.0 0.00 0.00 0.00 33 1018.4
20260508160131 69 147 0.0 1.0 0.00 0.00 0.00 31 1018.5
20260508155628 68 135 0.0 2.0 0.00 0.00 0.00 39 1018.6
20260508155124 66 152 0.0 2.0 0.00 0.00 0.00 38 1018.6
20260508154621 65 60 2.0 3.0 0.00 0.00 0.00 38 1018.7
20260508154118 65 140 0.0 1.0 0.00 0.00 0.00 41 1018.7
20260508153615 65 172 0.0 2.0 0.00 0.00 0.00 41 1018.8
20260508153112 64 151 1.0 2.0 0.00 0.00 0.00 40 1018.7
20260508152609 64 20 4.0 6.0 0.00 0.00 0.00 36 1018.8
20260508152104 66 140 0.0 2.0 0.00 0.00 0.00 42 1018.9
20260508151601 66 174 1.0 4.0 0.00 0.00 0.00 36 1018.9
20260508151058 64 157 0.0 1.0 0.00 0.00 0.00 38 1019.0
20260508150555 64 149 0.0 2.0 0.00 0.00 0.00 40 1019.0
20260508150050 65 151 1.0 2.0 0.00 0.00 0.00 46 1018.8
20260508145542 64 129 0.0 1.0 0.00 0.00 0.00 42 1019.1
20260508145038 63 193 1.0 2.0 0.00 0.00 0.00 42 1018.8
20260508144536 63 217 0.0 3.0 0.00 0.00 0.00 51 1018.8
20260508144034 62 135 1.0 2.0 0.00 0.00 0.00 45 1018.9
20260508143531 63 158 1.0 2.0 0.00 0.00 0.00 51 1018.8
20260508143027 63 145 1.0 2.0 0.00 0.00 0.00 45 1018.8
20260508142524 62 141 0.0 1.0 0.00 0.00 0.00 46 1018.7
20260508142021 63 185 0.0 2.0 0.00 0.00 0.00 48 1018.8
20260508141517 63 180 0.0 1.0 0.00 0.00 0.00 48 1018.7
20260508141015 62 115 1.0 2.0 0.00 0.00 0.00 49 1018.6
20260508140512 61 146 1.0 2.0 0.00 0.00 0.00 49 1019.0
20260508140008 61 20 3.0 3.0 0.00 0.00 0.00 52 1018.8
20260508135504 62 293 0.0 1.0 0.00 0.00 0.00 53 1019.1
20260508135001 61 153 1.0 1.0 0.00 0.00 0.00 53 1018.9
20260508134457 61 112 1.0 1.0 0.00 0.00 0.00 53 1019.0
20260508133954 60 142 1.0 1.0 0.00 0.00 0.00 55 1019.1
20260508133451 60 107 1.0 1.0 0.00 0.00 0.00 54 1018.9
20260508132948 60 107 1.0 1.0 0.00 0.00 0.00 54 1018.9
20260508132446 59 154 0.0 0.0 0.00 0.00 0.00 61 1018.8
20260508131943 60 320 4.0 6.0 0.00 0.00 0.00 61 1018.9
20260508131438 59 120 1.0 1.0 0.00 0.00 0.00 62 1019.0
20260508130935 59 192 2.0 3.0 0.00 0.00 0.00 63 1019.0
20260508130432 58 36 2.0 3.0 0.00 0.00 0.00 66 1019.0
20260508125927 58 93 1.0 1.0 0.00 0.00 0.00 67 1019.0
20260508125424 57 109 2.0 2.0 0.00 0.00 0.00 69 1018.8
20260508124922 57 109 2.0 2.0 0.00 0.00 0.00 69 1018.7
20260508124420 57 109 2.0 2.0 0.00 0.00 0.00 69 1018.9
20260508123917 57 109 2.0 2.0 0.00 0.00 0.00 69 1018.8
20260508123416 56 14 1.0 1.0 0.00 0.00 0.00 72 1018.6
20260508122911 56 3 4.0 4.0 0.00 0.00 0.00 74 1018.7
20260508122409 55 51 2.0 2.0 0.00 0.00 0.00 75 1018.6
20260508121906 51 92 0.0 1.0 0.00 0.00 0.00 99 1018.5
20260508121404 51 92 0.0 1.0 0.00 0.00 0.00 99 1018.4
20260508120901 51 92 0.0 1.0 0.00 0.00 0.00 99 1018.3
20260508120359 50 224 1.0 1.0 0.00 0.00 0.00 99 1018.2
20260508115856 49 100 1.0 2.0 0.00 0.00 0.00 99 1018.1
20260508115354 48 99 0.0 2.0 0.00 0.00 0.00 99 1018.1
20260508114850 47 184 0.0 1.0 0.00 0.00 0.00 99 1017.9
20260508114347 47 144 0.0 0.0 0.00 0.00 0.00 99 1018.0
20260508113844 46 221 0.0 1.0 0.00 0.00 0.00 99 1017.7
20260508113342 46 155 0.0 1.0 0.00 0.00 0.00 99 1017.9
20260508112838 46 270 0.0 1.0 0.00 0.00 0.00 99 1017.8
20260508112336 46 339 1.0 2.0 0.00 0.00 0.00 99 1017.7
20260508111831 45 162 0.0 0.0 0.00 0.00 0.00 99 1017.5
20260508111323 45 151 0.0 0.0 0.00 0.00 0.00 99 1017.4
20260508110820 44 153 0.0 0.0 0.00 0.00 0.00 99 1017.6
20260508110318 44 149 0.0 0.0 0.00 0.00 0.00 99 1017.5
20260508105817 44 155 0.0 0.0 0.00 0.00 0.00 99 1017.3
20260508105314 44 154 0.0 0.0 0.00 0.00 0.00 99 1017.1
20260508104811 43 153 0.0 0.0 0.00 0.00 0.00 99 1017.1
20260508104308 43 153 0.0 0.0 0.00 0.00 0.00 99 1017.0
20260508103805 43 152 0.0 0.0 0.00 0.00 0.00 99 1017.1
20260508103302 43 148 0.0 0.0 0.00 0.00 0.00 99 1016.9
20260508102800 43 156 0.0 0.0 0.00 0.00 0.00 99 1016.8
20260508102258 43 154 0.0 0.0 0.00 0.00 0.00 99 1016.8
20260508101755 43 154 0.0 0.0 0.00 0.00 0.00 99 1016.8
20260508101252 43 155 0.0 0.0 0.00 0.00 0.00 99 1016.6
20260508100750 43 152 0.0 0.0 0.00 0.00 0.00 99 1016.6
20260508100248 44 129 0.0 0.0 0.00 0.00 0.00 99 1016.6
20260508095743 44 119 0.0 0.0 0.00 0.00 0.00 99 1016.4
20260508095241 44 119 0.0 0.0 0.00 0.00 0.00 99 1016.3
20260508094738 44 124 0.0 0.0 0.00 0.00 0.00 99 1016.3
20260508094235 44 131 0.0 0.0 0.00 0.00 0.00 99 1016.2
20260508093732 45 132 0.0 0.0 0.00 0.00 0.00 99 1016.3
20260508093230 45 119 0.0 1.0 0.00 0.00 0.00 99 1015.9
20260508092726 45 120 0.0 1.0 0.00 0.00 0.00 99 1016.1
20260508092225 45 120 0.0 0.0 0.00 0.00 0.00 99 1016.0
20260508091722 45 131 0.0 0.0 0.00 0.00 0.00 99 1016.0
20260508091219 45 133 0.0 0.0 0.00 0.00 0.00 99 1016.0
20260508090717 44 113 0.0 0.0 0.00 0.00 0.00 99 1015.7
20260508090214 44 115 0.0 0.0 0.00 0.00 0.00 99 1015.9
20260508085710 45 121 0.0 0.0 0.00 0.00 0.00 99 1016.0
20260508085208 45 122 0.0 0.0 0.00 0.00 0.00 99 1015.9
20260508084703 45 134 0.0 0.0 0.00 0.00 0.00 99 1015.6
20260508084201 45 110 0.0 0.0 0.00 0.00 0.00 99 1015.6
20260508083658 44 122 0.0 0.0 0.00 0.00 0.00 99 1015.8
20260508083156 44 129 0.0 0.0 0.00 0.00 0.00 99 1015.6
20260508082650 45 123 0.0 0.0 0.00 0.00 0.00 99 1015.5
20260508082148 45 115 0.0 0.0 0.00 0.00 0.00 99 1015.4
20260508081645 45 121 0.0 0.0 0.00 0.00 0.00 99 1015.3
20260508081141 45 118 0.0 0.0 0.00 0.00 0.00 99 1015.2
20260508080638 45 121 0.0 0.0 0.00 0.00 0.00 99 1015.4
20260508080137 45 118 0.0 0.0 0.00 0.00 0.00 99 1015.5
20260508075628 45 122 0.0 0.0 0.00 0.00 0.00 99 1015.4
20260508075124 45 124 0.0 0.0 0.00 0.00 0.00 99 1015.4
20260508074622 45 134 0.0 0.0 0.00 0.00 0.00 99 1015.2
20260508074119 45 128 0.0 0.0 0.00 0.00 0.00 99 1015.3
20260508073616 45 131 0.0 0.0 0.00 0.00 0.00 99 1015.1
20260508073114 45 125 0.0 0.0 0.00 0.00 0.00 99 1015.3
20260508072609 45 131 0.0 0.0 0.00 0.00 0.00 99 1015.2
20260508072107 45 129 0.0 0.0 0.00 0.00 0.00 99 1015.1
20260508071605 46 129 0.0 0.0 0.00 0.00 0.00 99 1015.1
20260508071103 45 123 0.0 0.0 0.00 0.00 0.00 99 1015.0
20260508070600 46 126 0.0 0.0 0.00 0.00 0.00 99 1015.0
20260508070058 45 125 0.0 0.0 0.00 0.00 0.00 99 1014.9
20260508065555 46 130 0.0 0.0 0.00 0.00 0.00 99 1015.0
20260508065053 46 122 0.0 0.0 0.00 0.00 0.00 99 1014.9
20260508064550 46 130 0.0 0.0 0.00 0.00 0.00 99 1015.1
20260508064048 46 127 0.0 0.0 0.00 0.00 0.00 99 1014.9
20260508063545 46 125 0.0 0.0 0.00 0.00 0.00 99 1014.8
20260508063043 46 120 0.0 0.0 0.00 0.00 0.00 99 1014.7
20260508062540 46 123 0.0 0.0 0.00 0.00 0.00 99 1014.7
20260508062037 46 133 0.0 0.0 0.00 0.00 0.00 99 1014.7
20260508061535 46 132 0.0 0.0 0.00 0.00 0.00 99 1014.7
20260508061031 45 128 0.0 0.0 0.00 0.00 0.00 99 1014.4
20260508060528 45 141 0.0 0.0 0.00 0.00 0.00 99 1014.6
20260508060026 45 132 0.0 0.0 0.00 0.00 0.00 99 1014.5
20260508055521 45 134 0.0 0.0 0.00 0.00 0.00 99 1014.4
20260508055018 45 134 0.0 0.0 0.00 0.00 0.00 99 1014.4
20260508054515 45 133 0.0 0.0 0.00 0.00 0.00 99 1014.4
20260508054012 45 132 0.0 0.0 0.00 0.00 0.00 99 1014.4
20260508053509 45 128 0.0 0.0 0.00 0.00 0.00 99 1014.4
20260508053007 45 125 0.0 0.0 0.00 0.00 0.00 99 1014.4
20260508052504 45 123 0.0 0.0 0.00 0.00 0.00 99 1014.4
20260508052000 45 130 0.0 0.0 0.00 0.00 0.00 99 1014.5
20260508051456 45 131 0.0 0.0 0.00 0.00 0.00 99 1014.3
20260508050952 45 133 0.0 0.0 0.00 0.00 0.00 99 1014.3
20260508050449 45 131 0.0 0.0 0.00 0.00 0.00 99 1014.3
20260508045945 45 129 0.0 0.0 0.00 0.00 0.00 99 1014.3
20260508045443 45 126 0.0 0.0 0.00 0.00 0.00 99 1014.3
20260508044940 45 124 0.0 0.0 0.00 0.00 0.00 99 1014.1
20260508044437 46 129 0.0 0.0 0.00 0.00 0.00 99 1014.1
20260508043932 46 130 0.0 0.0 0.00 0.00 0.00 99 1014.2
20260508043430 46 131 0.0 0.0 0.00 0.00 0.00 99 1014.2
20260508042926 46 133 0.0 0.0 0.00 0.00 0.00 99 1014.0
20260508042424 46 133 0.0 0.0 0.00 0.00 0.00 99 1014.2
20260508041921 46 130 0.0 0.0 0.00 0.00 0.00 99 1014.2
20260508041417 46 129 0.0 0.0 0.00 0.00 0.00 99 1014.2
20260508040914 46 131 0.0 0.0 0.00 0.00 0.00 99 1014.1
20260508040411 47 133 0.0 0.0 0.00 0.00 0.00 99 1013.9
20260508035909 47 133 0.0 0.0 0.00 0.14 0.14 99 1013.9
20260508035406 47 131 0.0 0.0 0.00 0.14 0.14 99 1013.8
20260508034902 47 135 0.0 0.0 0.00 0.14 0.14 99 1013.9
20260508034359 48 136 0.0 0.0 0.00 0.14 0.14 99 1013.9
20260508033851 48 136 0.0 0.0 0.00 0.14 0.14 99 1013.9
20260508033349 48 132 0.0 0.0 0.00 0.14 0.14 99 1013.8
20260508032846 48 137 0.0 0.0 0.00 0.14 0.14 99 1013.7
20260508032343 48 136 0.0 0.0 0.00 0.14 0.14 99 1013.8
20260508031840 48 136 0.0 0.0 0.00 0.14 0.14 99 1014.0
20260508031337 48 135 0.0 0.0 0.00 0.14 0.14 99 1013.9
20260508030833 48 134 0.0 0.0 0.00 0.14 0.14 99 1013.9
20260508030330 48 135 0.0 0.0 0.00 0.14 0.14 99 1013.8
20260508025827 47 135 0.0 0.0 0.00 0.14 0.14 99 1013.7
20260508025324 47 135 0.0 0.0 0.00 0.14 0.14 99 1013.7
20260508024821 47 111 0.0 0.0 0.00 0.14 0.14 99 1013.5
20260508024317 47 140 0.0 0.0 0.00 0.14 0.14 99 1013.6
20260508023814 47 136 0.0 0.0 0.00 0.14 0.14 99 1013.4
20260508023311 47 141 0.0 0.0 0.00 0.14 0.14 99 1013.6
20260508022807 46 141 0.0 0.0 0.00 0.14 0.14 99 1013.6
20260508022306 47 141 0.0 0.0 0.00 0.14 0.14 99 1013.5
20260508021801 47 141 0.0 0.0 0.00 0.14 0.14 99 1013.7
20260508021256 47 141 0.0 0.0 0.00 0.14 0.14 99 1013.6
20260508020753 47 144 0.0 0.0 0.00 0.14 0.14 99 1013.5
20260508020251 47 139 0.0 0.0 0.00 0.14 0.14 99 1013.3
20260508015747 47 138 0.0 0.0 0.00 0.14 0.14 98 1013.5
20260508015245 47 136 0.0 0.0 0.00 0.14 0.14 98 1013.0
20260508014741 47 141 0.0 0.0 0.00 0.14 0.14 98 1013.3
20260508014238 47 141 0.0 0.0 0.00 0.14 0.14 98 1013.2
20260508013734 48 141 0.0 0.0 0.00 0.14 0.14 98 1013.3
20260508013231 48 139 0.0 0.0 0.00 0.14 0.14 98 1013.4
20260508012728 48 136 0.0 0.0 0.00 0.14 0.14 98 1013.4
20260508012225 48 135 0.0 0.0 0.00 0.14 0.14 97 1013.3
20260508011723 48 143 0.0 0.0 0.00 0.14 0.14 97 1013.3
20260508011220 48 144 0.0 0.0 0.00 0.14 0.14 97 1013.3
20260508010717 49 145 0.0 0.0 0.00 0.14 0.14 97 1013.3
20260508010215 49 145 0.0 0.0 0.00 0.14 0.14 97 1013.3
20260508005712 49 145 0.0 0.0 0.00 0.14 0.14 97 1013.3
20260508005209 50 151 0.0 0.0 0.00 0.14 0.14 97 1013.3
20260508004704 50 136 0.0 0.0 0.00 0.14 0.14 96 1013.1
20260508004200 50 136 0.0 0.0 0.00 0.14 0.14 96 1012.9
20260508003657 50 144 0.0 0.0 0.00 0.14 0.14 96 1012.8
20260508003155 50 145 0.0 0.0 0.00 0.14 0.14 96 1013.0
20260508002651 50 145 0.0 0.0 0.00 0.14 0.14 96 1013.1
20260508002149 50 149 0.0 0.0 0.00 0.14 0.14 95 1013.0
20260508001644 50 144 0.0 0.0 0.00 0.14 0.14 95 1012.8
20260508001140 50 141 0.0 0.0 0.00 0.14 0.14 95 1012.5
20260508000636 50 151 0.0 0.0 0.00 0.14 0.14 94 1012.5
20260508000134 50 153 0.0 0.0 0.00 0.14 0.14 94 1012.4
20260507235630 51 157 0.0 0.0 0.00 0.14 0.14 93 1012.4
20260507235128 51 157 0.0 0.0 0.00 0.14 0.14 93 1012.5
20260507234624 51 158 0.0 0.0 0.00 0.14 0.14 93 1012.2
20260507234121 51 152 0.0 0.0 0.00 0.14 0.14 92 1012.1
20260507233618 51 152 0.0 0.0 0.00 0.14 0.14 92 1012.1
20260507233116 51 155 0.0 0.0 0.00 0.14 0.14 90 1012.0
20260507232613 51 155 0.0 0.0 0.00 0.14 0.14 90 1012.1
20260507232110 51 155 0.0 0.0 0.00 0.14 0.14 90 1012.0
20260507231606 51 153 0.0 0.0 0.00 0.14 0.14 89 1011.9
20260507231103 51 153 0.0 0.0 0.00 0.14 0.14 89 1012.0
20260507230600 51 153 0.0 0.0 0.00 0.14 0.14 89 1012.1
20260507230056 51 152 0.0 0.0 0.00 0.14 0.14 91 1011.9
20260507225551 51 154 0.0 0.0 0.00 0.14 0.14 91 1011.8
20260507225048 51 161 0.0 0.0 0.00 0.14 0.14 90 1012.0
20260507224544 51 164 0.0 0.0 0.00 0.14 0.14 89 1011.9
20260507224041 52 155 0.0 0.0 0.00 0.14 0.14 88 1011.8
20260507223537 52 145 0.0 2.0 0.00 0.14 0.14 87 1011.8
20260507223034 52 140 0.0 0.0 0.00 0.14 0.14 91 1011.9
20260507222531 52 151 0.0 0.0 0.00 0.14 0.14 91 1012.0
20260507222027 52 153 0.0 0.0 0.00 0.14 0.14 92 1012.1
20260507221524 52 147 0.0 0.0 0.00 0.14 0.14 93 1011.7
20260507221021 52 151 0.0 0.0 0.00 0.14 0.14 93 1011.7
20260507220518 52 103 0.0 0.0 0.00 0.14 0.14 92 1011.7
20260507220015 52 153 0.0 0.0 0.00 0.14 0.14 93 1012.1
20260507215511 52 149 0.0 0.0 0.00 0.14 0.14 94 1011.6
20260507215009 52 153 0.0 0.0 0.00 0.14 0.14 93 1012.0
20260507214506 52 151 0.0 0.0 0.00 0.14 0.14 94 1011.8
20260507214002 52 137 0.0 0.0 0.00 0.14 0.14 94 1011.7
20260507213458 52 132 0.0 1.0 0.00 0.14 0.14 94 1011.6